SCP
1 2 2 2 2 3 3 3 3 3 2 2 2 2 2 2 2 2 2 2 2 2 3 3 3 2 2 1 1 0 0 0 0 0 0 0 0 0 0 0 0 0 0
2 2 3 3 2 3 3 3 3 3 3 2 2 2 2 2 2 2 2 2 2 2 3 3 3 2 2 1 1 1 0 0 0 0 0 0 0 0 0 0 0 0 0
2 2 2 2 3 3 3 3 4 4 3 3 3 3 3 2 2 2 2 2 2 3 3 3 3 3 2 1 1 1 0 0 0 0 0 0 0 0 0 0 0 0 0
2 2 2 2 3 3 3 4 4 4 4 3 3 3 3 3 3 3 3 2 3 3 3 3 3 3 2 2 1 1 1 0 0 0 0 0 0 0 0 0 0 0 0
1 2 2 3 3 3 3 4 5 5 5 4 3 3 4 4 4 4 3 3 3 3 3 3 3 3 2 2 2 1 1 0 0 0 0 0 0 0 0 0 0 0 0
1 2 2 3 4 4 4 4 5 5 5 5 4 3 4 4 5 5 4 3 3 3 3 3 3 3 2 2 2 1 1 0 0 0 0 0 0 0 0 0 0 0 0
1 1 2 3 4 4 4 5 5 5 5 5 4 4 3 4 5 5 4 3 2 3 3 3 3 3 2 2 2 1 1 0 0 0 0 0 0 0 0 0 0 0 0
1 1 2 3 3 4 5 5 5 5 5 5 5 4 3 3 4 5 4 3 2 3 3 3 3 3 2 2 2 1 1 0 0 0 0 0 0 0 0 0 0 0 0
1 1 1 2 3 4 5 5 5 5 5 5 5 4 3 3 4 4 4 3 2 2 3 3 4 3 2 1 1 1 1 0 0 0 0 0 0 0 0 0 0 0 0
1 1 1 2 2 3 4 5 5 4 4 4 5 4 3 3 3 4 4 3 3 2 2 3 3 3 1 1 1 1 1 0 0 0 0 0 0 0 0 0 0 0 0
1 1 1 2 2 3 4 5 5 4 4 4 4 4 3 3 3 3 3 3 2 2 2 2 3 2 1 1 1 1 0 0 0 0 0 0 0 0 0 0 0 0 0
1 1 1 2 2 3 4 5 5 4 3 3 4 4 3 3 3 3 2 2 2 2 2 2 2 2 1 1 1 1 0 0 0 0 0 0 0 0 0 0 0 0 1
1 1 1 2 2 3 4 5 5 5 4 3 3 4 3 3 3 3 2 2 2 2 2 2 1 1 1 1 1 0 0 0 0 0 0 0 0 0 0 0 0 0 1
1 1 1 1 2 3 4 5 5 5 4 3 3 4 3 3 3 3 2 2 2 2 2 2 2 1 1 1 0 0 0 0 0 0 0 0 0 0 0 0 0 1 1
1 1 1 1 2 3 4 4 4 5 4 3 3 3 3 3 3 3 2 2 2 2 2 2 2 1 1 1 1 0 0 0 0 0 0 0 0 0 0 0 0 1 1
1 1 1 1 1 2 3 4 4 4 3 3 3 3 3 2 3 3 2 2 2 2 2 2 1 1 1 1 1 0 0 0 0 0 0 0 0 0 0 0 0 1 1
1 1 1 1 1 2 3 3 3 2 2 2 2 3 3 2 2 2 2 2 2 2 2 2 1 1 1 1 1 0 0 0 0 0 0 0 0 0 0 0 0 1 1
1 1 1 1 1 1 2 3 2 2 1 1 1 2 2 2 2 2 2 2 2 2 2 2 1 1 1 1 1 0 0 0 0 0 0 0 0 0 0 0 0 1 1
1 1 1 1 1 1 2 3 2 1 1 1 1 2 2 1 1 2 2 2 2 2 2 2 1 1 1 1 0 0 0 0 0 0 0 0 0 0 0 0 0 1 1
1 1 0 0 1 1 2 3 2 1 0 0 1 1 1 1 1 2 2 3 2 2 2 2 1 1 1 1 0 0 0 0 0 0 0 0 0 0 0 0 0 0 0
1 1 0 0 1 1 2 2 2 1 0 0 0 1 1 1 1 2 2 3 3 2 2 2 1 1 1 1 1 0 0 0 0 0 0 0 0 0 0 0 0 0 0
1 0 0 0 1 1 1 2 1 1 0 0 0 1 1 1 1 2 3 3 3 2 1 2 2 1 1 1 1 1 0 0 0 0 0 0 0 0 0 0 0 0 0
0 0 0 0 1 1 1 1 1 1 0 0 1 1 1 1 1 2 3 3 2 2 1 1 2 1 1 1 1 1 1 1 1 0 0 0 0 0 0 0 0 0 0
0 0 0 0 1 1 1 1 1 1 0 0 0 0 1 1 2 3 3 3 2 1 1 1 2 2 1 1 1 1 1 1 1 0 0 0 0 0 0 0 0 0 0
0 0 0 0 0 1 1 1 1 1 0 0 0 0 1 1 2 3 3 3 2 1 1 1 2 2 1 1 1 1 1 1 1 0 0 0 0 0 0 0 0 0 0
0 0 0 0 0 1 1 1 1 1 0 0 0 0 0 1 2 3 3 3 2 1 1 1 2 2 1 1 1 1 1 0 0 1 0 0 0 0 0 0 0 0 0
Wind_Speed
4 2 1 1 3 4 6 8 9 9 10 11 11 12 12 12 12 12 12 12 12 12 12 13 13 13 12 12 12 11 11 11 11 11 10 10 10 11 10 9 8 9 12
4 1 2 0 2 4 5 5 7 8 9 10 11 11 11 12 12 12 12 12 12 12 12 12 13 13 12 12 11 11 11 11 11 10 9 10 10 10 10 9 8 8 11
4 2 2 1 1 3 4 4 5 6 8 9 10 11 11 11 11 11 11 12 12 12 12 12 12 12 12 12 12 12 11 11 11 9 7 7 9 10 10 10 10 10 10
4 2 1 1 0 2 3 3 4 5 6 8 9 10 11 11 11 11 11 11 11 11 11 12 12 12 12 12 12 12 11 11 10 7 5 6 7 10 10 10 9 9 9
4 2 2 2 1 1 2 3 4 5 5 7 8 9 10 10 11 11 11 10 10 10 10 11 12 13 13 12 12 11 11 10 9 6 6 6 6 9 9 9 9 9 9
4 3 2 2 1 1 2 3 3 4 5 6 7 9 10 10 10 10 10 10 10 10 10 11 11 12 13 12 12 12 11 10 9 7 6 6 6 9 9 9 8 8 8
5 4 2 2 2 1 2 4 4 4 5 5 6 8 9 10 10 10 10 10 10 10 10 11 11 11 12 13 12 12 11 10 7 7 6 6 6 9 9 9 8 7 7
5 4 3 2 2 2 1 3 4 4 4 5 6 7 8 9 9 9 10 10 10 11 11 11 11 11 12 13 12 12 11 9 7 7 6 6 7 8 8 8 7 7 7
5 5 4 3 3 3 2 2 4 4 4 4 5 7 7 8 9 10 10 9 10 11 11 11 11 11 12 12 12 11 10 7 7 6 6 5 7 8 7 7 7 7 6
6 5 5 4 4 4 4 4 3 4 5 5 5 5 6 8 9 10 10 9 10 10 11 11 12 11 11 11 11 11 10 9 8 7 5 5 7 8 7 8 7 6 6
7 6 5 5 5 5 5 4 5 5 6 6 5 5 6 7 8 8 9 9 10 10 11 11 11 11 10 10 10 11 10 7 7 5 5 5 7 8 8 8 7 7 6
9 8 5 5 5 5 5 4 4 4 5 6 5 6 6 6 6 7 7 9 10 10 11 11 11 11 9 7 9 11 7 8 7 5 4 6 8 9 9 8 8 7 7
9 8 7 6 6 5 4 4 3 3 4 6 6 6 5 5 5 5 5 6 8 9 9 9 9 8 8 6 6 7 7 7 5 5 5 7 9 9 9 8 8 8 7
10 9 8 7 6 6 5 5 4 3 3 4 5 6 5 4 5 5 5 6 6 5 7 7 6 8 8 9 8 8 9 6 5 4 5 7 9 10 10 9 9 9 8
10 10 9 8 7 6 5 5 5 5 5 5 5 6 6 5 6 6 5 6 7 6 7 7 7 8 8 8 8 8 8 9 8 7 5 8 8 9 10 11 10 10 10
10 10 8 8 8 7 6 5 5 5 5 5 5 6 7 6 6 6 6 6 7 7 7 7 8 8 7 7 8 9 8 8 8 8 6 7 9 9 11 11 11 11 11
10 10 9 8 8 8 7 6 5 5 5 5 5 7 8 7 7 7 6 7 7 7 8 7 8 7 6 7 8 9 8 8 8 9 8 6 7 8 9 11 11 11 11
9 9 9 7 8 8 7 6 5 5 5 4 5 6 8 9 9 8 7 7 7 6 7 7 7 7 7 7 7 7 7 7 9 9 8 7 6 6 8 10 10 11 11
9 8 8 8 8 7 7 6 6 5 5 4 5 6 7 9 9 8 7 7 7 6 7 7 7 7 7 7 7 6 6 6 7 8 9 9 8 7 7 7 9 9 10
8 8 8 8 7 6 5 5 4 6 5 5 5 6 8 8 9 8 6 8 8 7 7 8 9 8 7 6 6 6 6 6 6 7 9 8 8 9 9 8 7 8 9
8 8 8 8 7 5 4 4 4 6 5 5 6 8 9 8 9 9 6 8 8 8 9 10 8 9 8 6 5 5 5 7 8 7 8 8 9 9 9 9 7 7 6
8 8 8 8 7 7 5 4 5 6 5 5 5 7 9 9 10 9 9 8 9 8 10 10 9 7 6 7 6 5 4 6 7 8 8 8 9 8 8 9 9 8 7
8 8 7 7 7 7 6 4 4 5 4 5 6 6 7 8 9 9 10 10 10 10 9 11 11 11 8 8 8 6 5 5 4 6 9 8 8 8 8 8 9 9 9
8 7 7 7 7 7 6 6 7 6 7 7 6 6 7 9 10 10 10 11 10 10 11 11 11 10 10 9 8 7 6 3 4 4 6 7 9 9 9 7 8 8 8
8 7 7 7 7 7 6 6 7 7 7 6 6 8 8 8 10 10 11 10 10 10 11 12 11 12 10 10 8 7 7 5 6 4 5 6 7 8 8 8 7 7 8
7 7 7 7 7 7 7 7 8 8 8 8 8 8 7 7 7 10 11 10 11 10 11 12 12 13 11 12 10 9 8 6 6 6 6 7 7 6 7 7 7 7 6
Wind_Direction
354 347 51 214 156 153 157 164 166 166 166 164 161 160 159 159 160 161 159 156 154 152 149 146 144 139 137 136 133 130 126 121 116 115 113 112 111 111 108 107 112 101 95
346 351 100 290 148 153 156 160 171 170 167 166 166 164 163 163 162 161 161 160 159 157 153 150 147 142 138 137 135 132 127 122 121 118 118 117 114 115 112 105 97 97 100
2 18 118 76 136 152 155 159 162 169 169 168 169 166 167 166 165 164 164 163 163 162 158 153 149 145 142 140 137 133 130 127 127 126 141 133 124 119 115 111 104 103 103
6 15 89 61 95 158 158 166 165 166 172 172 172 170 169 171 171 166 164 163 163 165 161 156 153 149 147 143 140 137 134 134 132 149 151 127 127 121 120 115 109 110 107
11 16 61 34 17 186 177 172 175 173 177 180 177 175 174 175 174 172 170 164 162 160 160 158 157 155 153 149 146 144 142 141 143 165 134 128 126 126 126 120 114 114 111
359 2 38 3 334 254 193 183 177 178 181 186 185 183 182 182 178 175 172 168 165 161 159 157 161 161 158 154 152 150 149 150 165 156 144 141 135 133 133 129 124 120 115
343 338 342 346 302 286 221 195 186 182 183 191 190 189 189 189 185 178 175 173 170 166 164 164 161 163 162 159 156 156 156 162 176 158 155 148 138 138 139 136 134 132 124
326 316 299 293 287 265 247 202 189 183 181 191 196 196 195 192 190 186 181 176 174 173 172 169 167 164 165 164 160 160 159 170 176 166 161 152 141 150 150 145 143 141 133
312 308 293 268 255 238 225 212 199 188 189 194 202 204 200 195 192 189 183 181 180 177 175 171 172 170 167 167 165 161 160 178 185 170 167 158 152 164 163 159 153 149 144
299 299 294 276 265 246 223 204 208 203 198 201 206 206 204 200 196 189 187 184 185 181 176 175 176 174 172 169 168 165 164 183 192 177 178 157 163 177 174 168 162 160 158
292 289 290 284 271 259 240 215 206 203 198 200 200 196 201 204 200 193 195 187 187 184 181 180 180 176 171 171 170 167 175 192 190 189 183 155 181 188 182 176 173 175 173
288 287 283 283 278 270 253 226 214 210 206 208 209 205 211 212 207 204 184 189 188 184 185 185 182 179 182 178 174 179 191 194 191 192 172 166 193 195 190 184 184 186 189
285 282 281 277 276 266 261 234 222 216 214 217 213 213 217 215 207 202 188 184 188 188 189 184 188 192 192 186 186 194 194 193 196 192 174 180 201 201 195 192 194 195 197
286 279 278 274 271 263 260 244 223 220 217 223 218 216 215 213 211 205 200 196 193 194 195 194 198 198 199 193 195 198 196 198 200 195 174 185 206 207 204 202 202 202 202
277 279 275 272 264 260 253 252 231 218 217 219 221 218 217 217 215 208 205 201 201 198 198 198 199 198 202 200 199 202 202 202 201 198 183 189 210 216 215 211 209 210 211
272 275 278 272 263 254 250 247 241 222 216 218 220 223 220 218 216 211 209 207 206 204 202 202 201 199 201 201 202 206 208 206 208 205 202 191 204 219 224 220 215 218 221
269 272 273 272 262 251 247 246 244 224 217 221 222 224 223 220 215 213 209 210 209 207 205 204 203 203 204 204 207 209 211 213 211 212 208 208 203 207 224 228 224 225 227
268 267 268 268 264 252 246 248 245 229 219 223 226 223 224 221 217 214 209 211 210 207 204 204 202 203 205 207 209 209 212 215 216 217 214 212 214 212 213 223 231 232 235
268 264 262 263 262 254 248 247 248 239 224 226 231 226 225 220 217 216 213 210 207 208 207 205 208 208 206 209 212 213 215 216 217 216 219 219 219 221 222 209 222 233 240
272 262 255 256 259 257 246 243 252 244 230 226 232 231 229 222 215 216 214 210 206 208 208 207 209 211 212 209 212 218 221 219 219 218 221 221 222 222 225 223 220 221 228
275 266 255 253 257 252 244 234 243 242 234 230 236 232 228 226 217 216 213 208 208 212 212 210 208 209 210 205 207 217 228 227 224 219 218 220 222 220 223 225 226 227 220
273 271 267 257 256 250 248 241 238 240 237 234 241 235 228 226 220 215 213 210 210 213 215 213 209 209 207 201 204 204 215 219 220 219 217 218 223 219 222 224 226 225 228
273 268 266 263 262 255 248 243 239 237 234 236 237 236 229 227 225 220 219 215 212 214 215 213 208 209 206 205 209 208 208 216 199 200 211 213 216 215 217 219 224 226 226
277 272 267 262 262 258 249 241 238 238 237 241 241 237 230 230 227 221 221 220 217 216 217 216 213 210 208 207 209 224 237 236 214 195 200 209 214 217 219 216 220 223 223
280 277 271 266 264 258 249 245 241 242 244 242 240 239 232 229 226 224 221 221 219 219 219 217 215 212 211 212 210 208 220 226 231 224 213 207 214 219 220 219 217 217 218
286 282 275 269 269 263 249 246 244 246 246 245 242 238 232 229 224 225 221 223 221 220 219 217 215 215 214 215 214 213 211 211 210 218 221 211 217 219 218 218 218 214 214